Location: ????????
(55.6189°N, 38.3031°E)
Time: 08:03:09
(UTC+00:00)

Cosmos 1515 Rocket - Pass Details

Date: 15 November 2019
Orbit: 605 x 631 km, 82.5° (Epoch: 11 December)

Event Time Altitude Azimuth Distance (km) Brightness Sun altitude
Rises 03:49:28 0° 343° (NNW) 2,884 6.6 -9.9°
Reaches altitude 10° 03:51:48 10° 336° (NNW) 1,973 5.7 -9.6°
Maximum altitude 03:55:51 39° 268° (W) 915 4.0 -9.0°
Drops below altitude 10° 03:59:52 10° 199° (SSW) 1,954 6.2 -8.5°
Sets 04:02:10 0° 192° (SSW) 2,853 7.1 -8.2°
